Theta_e
311 311 310 308 308 311 315 316 314 310 309 309 309 309 309 309 308 309 309 309 309 309 309 309 309 309 309 309 309 309 309 309 310 310 309 309 309 311 310 307 307 308 308 309 309 309 308 307 307 307 307 307 307 307 307 306 306 307 311 311 308 308 307 306 305 305 305 304 303 302 302 303 303 302 301 301 302 302 302 302 302 302 302 302 302 302 302 302
310 309 309 308 308 312 315 316 313 310 310 310 310 310 309 309 309 308 308 308 309 309 309 309 309 309 308 309 309 309 309 309 310 310 309 308 310 311 309 307 307 307 307 308 308 308 308 307 307 307 308 308 307 307 307 307 306 307 311 310 308 307 305 304 305 304 304 305 304 302 302 303 303 302 301 302 303 302 302 303 303 302 302 302 302 302 303 303
309 309 308 307 308 312 316 316 312 310 311 311 311 310 310 310 309 309 309 309 308 308 308 308 309 309 309 309 310 310 310 309 310 309 308 309 310 311 310 308 309 309 308 308 308 308 307 308 308 308 309 308 306 307 307 307 306 306 309 310 307 305 303 302 303 303 304 304 303 302 301 302 303 302 301 303 304 303 303 305 304 303 303 303 303 303 303 303
309 308 308 307 307 312 316 315 313 311 311 312 311 311 311 311 311 311 311 311 310 309 308 309 308 309 309 310 311 311 310 310 309 308 308 309 310 310 310 310 310 310 309 308 308 308 308 308 308 308 309 308 306 306 305 305 306 305 306 308 304 303 304 302 302 302 303 303 303 303 301 302 302 302 302 302 304 305 305 305 304 304 303 303 303 303 303 303
310 308 308 307 306 310 316 316 313 311 311 312 312 312 313 313 313 312 312 311 310 309 309 309 309 309 309 310 311 311 311 311 308 308 309 309 309 309 310 310 310 310 310 309 309 309 308 308 309 308 308 307 306 307 304 302 305 304 302 303 302 302 304 301 301 302 302 303 303 302 302 303 302 302 302 302 304 306 306 304 304 304 304 303 303 303 303 303
310 309 308 307 306 308 314 316 314 312 312 313 312 313 314 315 313 313 313 312 311 310 310 310 310 310 310 310 311 311 311 310 308 308 309 309 309 309 309 309 309 310 310 310 310 310 309 308 309 307 306 306 305 306 303 301 304 305 302 301 301 301 302 301 301 302 302 302 302 302 303 302 302 302 302 302 304 305 305 304 304 303 303 303 303 303 303 303
309 309 308 307 306 307 312 316 315 313 313 313 313 314 315 316 314 313 314 314 313 311 310 310 310 310 309 309 310 310 310 308 307 308 309 308 309 309 309 309 309 309 309 309 309 309 309 309 309 306 305 306 304 303 302 303 305 305 303 300 300 300 301 302 301 303 302 302 302 302 302 301 302 303 301 301 304 304 304 303 303 303 303 303 303 303 303 303
309 309 308 308 307 306 309 315 316 314 313 313 314 315 316 316 314 314 315 314 313 311 310 310 310 310 309 309 309 309 308 306 307 308 308 308 308 309 309 309 309 309 309 309 308 309 309 309 309 306 306 305 304 303 302 304 305 304 302 300 300 300 301 302 302 302 302 301 302 301 301 301 302 301 300 302 305 305 303 303 303 303 303 303 303 303 303 303
308 308 308 308 307 306 307 312 316 315 314 314 314 315 316 317 315 315 315 314 312 311 310 310 310 310 309 309 309 309 307 306 307 308 308 308 308 309 309 309 309 309 309 308 308 309 309 309 309 308 306 304 303 303 303 305 306 302 301 301 300 300 300 301 301 301 301 301 301 301 302 302 301 300 301 304 305 304 304 304 304 303 303 304 304 303 303 303
308 308 308 308 307 307 306 308 313 316 315 315 315 315 317 318 316 316 315 313 311 310 310 310 310 310 309 308 309 309 307 306 306 307 308 308 308 309 309 309 309 309 309 309 308 309 309 310 309 309 308 304 303 303 302 304 304 301 301 301 301 300 300 300 300 300 301 301 300 302 303 303 301 301 304 306 305 304 304 304 304 304 304 304 304 304 304 303
308 307 307 308 308 307 306 306 310 315 316 316 316 316 318 318 317 316 315 312 310 310 309 310 310 309 309 309 309 308 307 306 306 307 308 308 308 308 309 309 309 309 309 309 309 308 309 309 308 309 308 305 304 302 301 302 302 301 302 302 301 301 301 301 301 301 301 302 301 301 302 302 300 300 305 306 305 304 304 304 304 304 304 304 304 304 304 304
307 307 307 307 307 307 307 306 307 312 315 316 316 317 318 319 317 316 314 312 310 309 308 309 309 308 309 309 308 307 306 307 306 307 307 308 308 308 309 309 309 309 308 309 309 308 308 308 309 309 307 305 304 303 302 301 301 302 302 303 302 302 303 301 301 301 301 303 302 301 303 304 302 302 306 306 304 305 304 305 305 304 304 304 304 304 304 304
307 307 307 307 308 307 307 307 306 309 314 315 315 316 318 319 317 316 314 312 310 309 308 309 309 308 309 308 306 306 306 307 306 306 307 308 308 309 309 309 309 308 308 309 309 309 309 308 309 308 306 304 303 303 303 301 302 303 303 304 304 304 305 302 301 301 301 303 302 302 306 309 306 305 306 306 305 305 305 305 305 305 305 304 304 304 303 303
307 307 307 307 307 307 307 307 306 308 313 315 315 315 318 319 317 316 314 312 310 309 309 309 309 309 309 307 306 307 307 307 306 306 307 307 308 308 308 308 308 308 308 309 308 308 308 307 309 308 305 304 302 302 303 302 304 304 303 305 307 308 307 302 301 302 303 303 302 303 307 310 309 308 306 305 305 305 305 306 306 306 305 305 304 304 304 304
307 307 308 307 307 307 307 307 307 308 312 315 315 316 318 319 317 316 315 313 311 309 309 309 309 309 308 306 306 306 306 307 307 306 307 307 307 307 307 307 307 308 308 308 307 307 307 308 309 306 303 304 304 305 305 305 305 304 306 309 309 309 308 304 300 301 303 303 302 304 307 310 310 308 307 306 306 305 306 307 307 306 306 306 305 305 305 304
307 308 308 308 308 308 307 307 307 309 312 314 315 316 318 318 317 316 315 314 312 310 309 309 309 309 309 307 306 307 307 307 307 306 307 307 307 307 307 307 307 307 307 307 307 307 307 308 307 304 304 305 305 308 309 309 308 307 308 311 309 309 309 306 301 299 301 302 303 304 306 309 309 308 307 306 306 305 305 306 307 307 307 306 306 306 306 306
308 308 308 308 308 308 307 308 309 310 313 314 315 316 318 318 317 317 314 312 310 309 309 308 308 308 309 307 306 307 307 307 307 307 307 307 307 307 308 308 308 308 308 308 308 307 308 308 307 306 307 306 305 309 312 310 310 310 309 310 308 307 308 308 305 300 300 302 304 304 304 307 309 308 307 307 307 305 305 306 307 307 307 307 306 306 306 306
309 308 308 308 308 308 309 309 310 311 313 314 315 316 317 318 317 317 315 312 309 309 309 309 308 309 309 307 306 307 307 307 307 307 307 307 308 308 308 309 309 309 309 309 309 308 309 308 308 310 310 308 306 309 312 310 310 310 310 310 308 306 306 307 306 302 301 302 303 304 304 306 308 309 308 307 306 305 304 305 306 306 307 307 307 307 307 307
309 309 309 308 308 309 309 310 310 311 313 313 315 316 317 317 317 316 315 313 310 310 311 310 310 311 309 306 306 307 307 307 307 307 307 307 308 308 309 310 309 310 309 311 310 306 308 310 311 313 311 308 305 306 309 308 307 309 309 308 309 309 308 307 304 301 300 303 304 306 307 308 308 308 309 308 306 305 304 304 305 306 307 308 308 308 308 307
310 310 309 308 308 309 310 310 310 312 313 313 315 316 316 317 317 316 312 310 309 309 309 308 308 309 307 306 306 307 307 307 307 307 307 308 308 308 309 309 309 310 309 311 311 305 307 313 312 310 307 304 302 301 302 302 303 306 308 308 308 309 310 307 303 300 299 303 307 306 306 306 306 307 309 308 306 305 304 303 304 307 309 308 308 309 308 308
310 310 309 309 308 310 310 309 310 311 312 314 315 315 316 316 317 315 310 308 307 307 307 307 307 307 306 307 307 307 307 307 307 307 308 308 308 309 309 310 312 311 305 303 307 306 309 313 307 303 302 300 300 298 298 301 303 306 308 310 310 309 310 306 303 302 300 304 307 305 304 307 308 309 310 310 308 306 306 305 306 308 309 309 309 309 309 309
309 310 309 308 309 311 310 309 310 311 312 313 314 315 316 315 315 313 310 308 306 306 307 307 307 307 307 307 306 306 307 307 308 308 308 308 309 310 309 311 313 311 304 303 308 310 312 310 303 300 299 298 299 298 299 303 306 308 309 311 311 309 309 306 302 301 301 304 308 306 305 309 309 310 311 310 308 308 307 306 306 307 308 310 310 310 309 309
309 310 309 308 309 310 310 309 309 310 312 312 313 314 315 315 313 312 310 309 308 306 306 307 307 307 307 307 307 307 307 307 308 307 308 309 309 309 308 310 313 312 309 311 314 314 310 305 300 298 298 299 301 299 300 305 307 309 310 310 310 308 308 308 305 302 302 303 305 305 306 309 310 311 311 308 306 306 306 306 306 307 308 310 310 310 310 309
309 310 309 309 309 311 310 309 309 310 311 311 313 313 314 315 313 311 309 308 308 307 306 307 307 307 307 307 307 307 307 307 307 307 308 308 308 309 306 306 312 312 306 308 316 314 307 301 297 298 298 299 302 304 304 308 309 308 309 310 309 307 307 307 306 304 304 303 302 305 309 312 313 313 313 309 306 306 306 306 307 308 310 310 310 310 310 309
308 309 309 309 309 310 310 309 308 309 310 311 312 312 314 314 312 311 310 310 310 307 307 307 307 307 307 307 307 306 306 307 306 307 308 308 308 309 305 303 309 310 303 305 313 310 303 298 297 300 300 299 303 307 307 309 310 308 306 306 305 305 305 305 306 306 308 307 304 305 310 313 314 314 314 311 308 310 309 307 308 309 310 310 311 311 310 309
308 308 309 309 309 310 310 309 308 309 310 310 311 312 313 314 312 310 311 315 313 308 308 308 307 308 306 306 306 305 307 307 306 307 307 308 307 307 308 305 305 307 303 304 307 306 302 298 298 300 302 303 305 307 305 304 308 308 305 301 302 303 304 305 306 307 310 309 305 304 309 312 313 315 314 310 310 313 312 310 310 309 310 310 311 312 310 309
309 308 308 308 309 310 310 309 309 309 309 310 311 312 312 313 312 308 312 315 311 307 309 308 307 309 307 305 305 305 309 308 306 307 306 307 307 306 310 310 306 304 301 303 308 304 301 300 300 301 303 306 308 307 303 301 307 308 302 300 302 303 304 305 306 308 308 308 307 306 308 310 311 314 314 309 312 316 315 315 313 311 311 311 312 312 311 310
309 308 307 308 308 310 310 309 309 308 308 310 311 311 312 313 311 310 314 312 306 308 310 308 308 309 307 305 305 306 308 307 307 308 306 307 307 306 310 309 306 304 298 304 309 304 299 302 302 303 305 307 306 304 300 300 306 307 300 300 301 302 304 304 306 308 306 307 310 309 308 310 311 315 314 310 313 316 315 316 315 313 312 311 312 312 311 310
308 308 307 307 308 309 309 309 309 308 309 310 309 310 312 312 310 312 313 308 306 308 308 308 309 307 305 306 306 306 307 306 307 308 307 308 307 306 308 305 302 304 300 305 310 304 299 302 301 301 305 305 302 300 298 301 305 303 299 300 301 301 303 303 306 308 307 308 311 309 306 309 311 314 315 312 314 316 315 315 315 313 312 312 312 312 312 310
307 308 307 307 307 308 309 310 309 308 309 309 309 310 310 310 311 311 309 307 309 308 305 307 308 306 307 308 307 306 306 306 305 305 306 306 305 305 306 303 303 308 308 305 305 302 300 300 299 301 302 301 300 300 299 300 302 301 301 304 304 303 303 304 305 307 309 310 310 307 304 308 310 312 316 314 313 314 313 313 314 314 313 312 312 312 312 310
306 307 307 307 307 308 309 309 309 309 309 309 309 309 309 312 313 311 308 308 310 309 306 308 307 307 309 310 309 308 307 305 303 306 309 307 306 305 304 305 305 308 310 309 304 301 301 301 300 299 299 299 300 302 300 298 299 302 305 307 308 307 306 307 308 307 310 310 308 305 303 306 309 311 314 315 313 313 312 311 312 314 313 312 312 312 312 311
306 307 307 307 307 308 309 309 309 309 309 309 309 308 311 312 311 313 311 307 309 310 308 308 307 308 310 311 311 309 309 306 303 306 309 308 309 307 306 308 307 307 309 308 306 304 303 302 299 298 298 298 301 304 304 302 302 304 307 307 308 308 308 308 308 308 309 309 307 304 304 306 310 311 313 313 313 313 311 310 311 312 311 311 312 312 312 312
306 306 307 307 307 307 308 309 309 308 309 309 308 309 313 312 311 314 313 309 308 307 306 307 306 307 309 310 309 305 306 307 305 305 304 305 309 307 304 304 305 309 310 306 305 307 306 302 299 301 300 297 299 304 306 307 306 306 308 309 308 307 308 308 307 307 308 309 306 302 304 308 310 311 312 312 312 312 310 309 309 309 309 310 311 311 312 312
306 306 306 307 307 307 308 309 308 308 309 308 309 311 312 312 312 312 311 308 307 305 304 305 306 307 307 307 305 303 306 306 305 308 306 305 308 307 307 306 303 308 309 306 305 306 307 306 303 301 301 299 299 301 303 304 305 306 304 306 308 307 307 308 307 307 308 308 307 303 306 310 310 311 313 311 310 309 309 309 310 310 310 310 311 311 312 312
305 306 306 306 307 307 308 308 308 309 308 309 311 312 310 310 311 311 311 308 306 307 306 304 307 309 306 305 304 302 306 306 304 308 308 306 307 307 308 310 306 306 307 307 305 303 304 304 301 298 299 298 299 299 298 301 305 305 301 306 309 307 308 308 307 308 307 307 308 307 308 310 310 312 313 310 309 309 310 310 311 311 311 311 312 312 312 313
305 306 306 306 307 307 308 308 308 309 309 310 311 311 312 313 310 310 311 309 309 309 307 307 310 310 307 305 305 303 304 305 304 306 307 305 307 306 306 308 306 306 307 308 308 306 305 304 299 297 299 296 298 299 296 301 305 304 304 308 306 302 305 309 306 304 305 308 310 308 309 310 310 311 312 312 312 312 310 310 310 311 312 312 312 312 312 313
306 306 306 306 306 307 308 308 308 308 309 310 312 312 312 311 307 307 308 307 308 308 309 312 309 308 309 308 306 305 305 304 303 306 307 305 306 307 306 306 303 303 304 306 309 308 306 306 301 298 301 298 296 298 297 298 300 303 306 306 302 301 304 308 308 307 307 309 310 308 307 308 308 310 313 315 314 313 312 311 311 312 313 311 312 312 313 313
306 306 306 306 307 307 308 308 308 309 308 309 313 313 310 307 304 305 306 304 306 308 311 314 310 306 309 309 307 305 305 306 305 306 307 306 307 307 308 308 304 301 300 301 306 307 305 307 304 297 300 299 295 299 302 299 297 301 304 301 302 307 308 307 307 308 308 308 309 308 307 307 308 310 313 314 313 312 312 312 312 313 312 311 311 312 312 312
306 306 306 306 307 307 307 308 308 308 309 309 312 311 307 305 303 303 305 304 306 309 310 311 309 306 305 307 307 305 304 306 306 307 307 305 307 307 306 308 305 301 299 299 305 306 303 306 307 299 297 298 298 301 306 304 300 299 301 301 302 305 307 307 306 307 308 308 308 309 309 309 310 311 313 312 312 311 311 312 313 312 311 311 311 311 310 310
306 306 306 306 306 307 307 308 308 309 310 309 311 310 305 304 304 302 305 305 305 307 310 311 310 309 306 304 304 304 304 305 305 306 306 304 306 306 303 304 306 303 300 299 303 306 303 304 306 302 297 300 303 303 304 305 303 302 304 305 304 303 304 306 305 305 307 308 307 307 309 310 311 313 313 311 311 311 311 311 312 311 311 311 310 309 309 310
305 306 307 306 306 308 307 308 307 307 310 307 307 309 306 305 305 303 304 305 304 305 308 310 309 309 309 305 304 304 303 304 305 306 306 304 305 306 303 300 304 304 302 302 304 306 304 304 306 306 303 305 305 300 297 299 300 302 305 306 306 306 306 307 307 304 304 306 306 306 308 311 312 313 313 311 310 309 308 308 309 310 310 309 309 309 309 309
305 307 307 306 307 308 307 309 304 302 309 309 305 308 308 306 306 305 304 304 305 304 304 306 308 307 308 307 305 304 304 305 305 305 306 305 304 305 302 298 301 302 303 305 305 302 302 304 306 307 306 303 300 295 294 294 294 297 300 302 304 306 307 308 308 306 305 304 304 304 306 311 313 311 310 309 308 307 306 306 307 308 309 309 309 309 309 308
305 307 307 306 307 307 308 310 304 303 308 307 303 305 306 305 305 305 305 305 305 305 305 307 307 306 306 305 305 306 306 306 306 305 306 305 302 301 299 298 300 300 302 306 305 301 303 306 307 307 306 300 296 295 293 291 293 299 301 299 301 304 306 307 307 306 307 306 305 306 307 313 314 307 305 306 306 306 307 307 307 307 309 309 309 308 309 309
305 306 306 306 307 307 308 309 307 307 307 303 303 305 305 304 304 306 307 307 305 306 309 309 306 305 305 302 304 307 306 306 307 305 304 305 303 299 298 299 299 299 301 305 305 303 305 307 307 307 307 306 304 303 301 298 297 302 303 299 300 303 304 306 304 304 306 308 309 308 308 312 314 309 307 307 306 307 308 308 307 308 308 308 308 308 308 308
305 306 306 306 307 307 307 308 308 308 307 306 308 307 306 305 304 304 306 306 304 304 309 309 304 304 304 301 303 304 302 304 307 305 303 303 302 298 298 300 299 299 301 302 301 302 304 307 307 307 308 307 307 308 308 306 303 303 303 299 299 302 305 307 306 305 307 308 307 309 310 312 313 313 312 310 309 309 309 309 308 308 307 307 307 308 308 307
306 307 306 305 306 306 305 305 306 307 307 308 309 307 307 308 305 303 304 305 304 303 305 305 302 303 305 303 305 305 301 301 303 304 305 304 301 298 298 300 300 300 301 301 300 301 305 306 306 308 309 308 309 310 306 305 307 307 306 302 300 300 303 305 306 306 308 307 306 309 312 312 312 312 311 311 311 310 310 309 308 308 307 308 307 308 308 307
306 307 306 305 306 306 305 304 304 305 306 308 308 307 308 309 306 304 304 304 304 303 303 304 303 306 308 306 307 307 303 301 302 303 305 303 300 298 297 299 300 300 301 301 300 301 306 307 305 307 308 307 306 306 302 303 308 309 307 305 301 300 301 305 307 308 308 308 309 312 312 310 311 310 310 311 311 310 310 309 308 307 307 308 308 307 307 307
305 306 306 306 308 307 307 306 304 304 305 306 306 306 307 309 308 308 306 303 302 303 305 306 306 308 310 308 309 308 304 303 304 304 305 303 301 300 299 299 299 300 301 300 299 301 306 307 304 304 308 307 302 301 300 302 305 306 305 306 304 301 302 306 308 307 307 309 311 312 312 311 310 310 310 310 310 309 309 308 307 307 307 307 307 308 308 308
304 305 304 305 307 307 307 307 304 304 304 305 306 306 307 309 309 308 305 303 304 303 305 308 310 310 309 309 310 309 306 307 310 307 306 305 303 302 304 303 300 299 300 300 299 300 304 307 305 302 307 310 303 298 298 300 303 305 305 304 304 303 303 306 308 307 307 309 311 311 311 310 309 309 309 309 309 308 307 307 307 307 307 307 307 307 308 308
304 305 305 305 305 305 305 305 304 305 305 305 306 306 306 308 310 306 303 306 309 306 304 308 312 310 307 307 310 312 310 313 318 312 307 307 306 303 306 308 304 299 299 301 300 299 302 307 306 303 308 312 305 299 298 299 301 306 307 303 302 304 304 304 306 305 305 306 308 308 308 307 307 308 308 308 307 307 306 307 307 307 307 308 308 308 308 308
305 305 305 306 305 304 304 304 304 306 306 305 306 306 305 308 309 307 305 306 310 309 306 308 311 308 304 304 308 312 309 309 314 311 306 308 309 306 306 306 306 304 302 301 301 301 301 304 304 304 308 311 305 302 304 303 303 308 310 306 302 304 305 304 303 304 305 306 306 306 306 307 309 309 308 308 307 307 307 307 307 307 308 308 307 308 308 308
305 305 305 306 307 304 303 303 304 306 307 305 306 306 306 307 306 306 307 306 305 306 306 305 307 307 305 305 308 310 307 306 308 307 304 306 306 305 304 303 305 306 304 302 302 301 302 305 305 305 309 309 304 303 307 310 311 313 315 314 308 304 303 303 302 303 303 305 306 306 308 310 311 309 308 309 309 309 308 308 307 307 308 308 308 308 308 308
Wind_Speed
10 11 11 9 10 11 11 12 13 13 15 16 16 16 16 16 16 17 17 16 15 14 14 13 12 11 10 10 10 10 9 5 4 9 13 15 12 10 11 12 13 13 12 10 9 9 9 7 7 10 12 11 12 11 8 6 5 3 0 3 5 2 3 6 7 5 5 8 11 11 11 8 6 8 9 7 8 9 10 12 12 12 12 10 9 8 7 7
10 12 11 10 11 11 11 12 13 14 15 15 15 15 15 15 14 14 14 13 12 12 12 11 10 9 10 12 12 12 12 9 10 15 17 13 9 10 11 13 14 15 13 11 10 9 9 11 11 12 12 11 9 6 5 7 8 5 1 4 4 1 3 3 6 7 4 9 14 12 13 10 5 7 8 6 6 8 9 11 13 15 14 13 12 10 9 9
9 11 11 10 11 11 11 11 13 14 14 15 14 15 15 15 14 14 13 11 10 9 9 9 9 10 11 11 10 8 9 10 11 16 16 10 9 9 10 11 12 12 11 10 9 8 9 10 9 10 11 10 7 7 7 8 8 5 2 3 3 3 5 3 7 6 4 11 15 11 13 10 6 7 8 6 6 8 12 11 11 16 16 14 13 12 11 12
8 9 10 9 11 12 11 11 12 13 13 13 13 14 14 14 13 12 11 10 10 8 8 9 9 8 6 4 5 5 7 9 10 15 12 9 8 7 8 8 8 9 9 8 7 6 6 6 7 8 10 8 7 9 10 10 7 5 4 4 5 6 4 5 8 5 7 13 13 11 11 9 8 10 10 6 5 8 14 16 14 15 14 12 14 14 14 14
6 7 9 8 9 11 11 10 10 11 11 11 12 12 13 13 11 10 11 11 10 9 8 9 7 4 1 1 3 3 4 5 8 11 8 9 8 7 6 6 6 6 6 5 4 3 4 5 6 3 6 6 7 7 8 10 10 8 5 6 7 4 3 6 8 7 11 12 10 11 9 7 8 11 13 10 8 7 8 12 14 14 13 14 16 15 15 15
5 5 7 8 8 10 11 10 9 10 10 10 11 11 11 11 10 9 11 11 10 8 7 6 6 4 2 2 3 1 3 3 6 8 8 8 8 7 6 5 5 4 3 2 1 1 3 5 5 1 4 6 9 7 7 9 7 7 4 5 6 3 4 7 7 7 11 9 8 8 6 6 7 8 13 17 18 14 8 8 10 11 13 15 16 16 16 16
3 4 5 7 7 9 10 10 9 9 9 9 9 9 10 9 9 9 9 10 8 6 6 5 6 5 5 7 4 6 12 10 8 7 7 7 7 6 5 4 4 4 3 2 1 2 4 6 5 6 7 7 8 9 11 13 11 9 6 3 5 6 7 8 7 9 10 6 6 6 6 7 8 7 9 18 22 17 14 13 13 13 14 14 15 16 17 17
1 2 3 5 7 8 9 10 9 8 8 8 7 8 8 7 8 8 8 8 6 5 5 5 5 5 6 8 11 16 17 14 11 8 6 7 7 4 4 4 4 4 3 2 3 2 2 6 10 10 8 7 7 7 8 12 14 11 6 5 7 9 8 10 9 9 7 5 6 7 7 8 10 9 11 19 19 14 16 19 19 18 17 17 18 18 18 18
1 0 1 3 5 7 8 9 9 8 7 6 6 5 5 6 7 7 8 8 6 5 4 4 3 3 7 8 9 14 13 14 13 11 7 6 6 5 5 4 4 3 2 2 4 4 3 6 8 5 9 12 9 6 4 4 6 6 8 9 9 9 8 9 7 6 5 4 4 6 8 9 11 10 14 20 19 16 17 20 21 21 20 20 19 19 19 19
2 1 1 2 4 6 7 8 9 8 7 6 5 4 4 5 5 6 8 9 7 5 4 4 3 4 8 6 6 9 8 13 16 13 8 7 7 7 6 4 3 3 2 3 3 1 2 7 10 11 16 15 9 7 7 5 8 13 14 12 10 9 7 6 4 4 3 3 4 5 8 9 8 5 8 10 10 12 12 14 17 18 20 20 19 19 19 19
2 2 2 2 3 4 6 7 9 8 7 6 4 3 4 4 5 6 8 9 8 7 6 5 5 6 5 5 11 10 7 13 16 14 10 7 7 8 8 6 6 6 4 1 4 6 11 14 14 11 10 11 11 13 13 14 18 19 16 12 9 6 4 3 3 2 2 3 5 6 9 9 5 5 12 11 9 10 10 11 13 15 18 19 19 20 19 19
2 3 3 3 3 4 5 7 8 8 7 5 3 3 5 4 4 6 7 8 8 8 8 7 9 9 4 8 17 12 7 13 15 14 11 7 8 9 10 8 9 12 8 5 11 13 13 9 4 4 10 13 10 9 14 19 18 14 8 5 4 2 3 2 2 2 2 3 4 5 8 7 8 12 17 14 13 12 12 13 13 14 16 17 19 19 20 19
2 3 3 3 3 4 5 6 8 8 7 5 3 3 5 5 5 6 6 8 7 7 7 6 8 6 5 11 16 11 9 12 13 12 9 9 10 10 10 8 7 10 7 6 11 8 6 4 2 13 21 15 8 10 15 14 11 7 2 1 2 2 2 2 2 2 3 4 4 3 5 3 8 17 16 11 12 13 14 14 12 12 13 15 17 18 18 18
2 3 3 4 4 4 5 6 8 8 7 6 4 4 5 5 4 5 6 7 7 6 5 6 6 4 8 12 11 10 9 10 10 8 9 12 13 13 14 13 11 11 9 10 13 13 13 9 11 19 20 16 17 18 13 6 3 3 0 0 1 1 2 3 1 2 3 2 2 2 4 4 3 9 13 12 13 13 14 14 13 13 13 13 14 15 16 16
2 2 3 3 4 5 6 7 8 8 7 6 5 4 6 6 4 3 4 6 6 6 5 6 5 6 13 13 9 10 9 8 7 7 10 12 13 16 17 17 17 17 15 16 17 18 14 10 14 20 18 20 20 12 5 2 2 1 1 1 1 2 1 3 2 1 2 1 1 3 4 6 5 5 10 14 13 12 14 14 14 14 13 14 14 14 15 14
3 2 2 2 4 5 7 9 9 8 8 7 6 6 6 5 4 3 4 5 5 5 5 5 5 8 12 9 7 9 9 9 10 10 12 11 13 15 15 15 15 14 14 14 14 14 11 10 18 20 14 11 7 2 3 3 2 1 2 1 1 2 1 1 2 2 3 2 3 4 4 7 5 3 5 10 11 9 11 14 15 16 16 17 17 16 16 15
4 3 1 2 4 6 8 10 9 9 8 8 7 7 7 6 4 3 5 6 5 5 6 8 9 8 9 7 6 8 8 10 11 11 11 10 11 12 11 10 10 10 11 11 10 10 9 10 12 10 7 4 1 1 2 2 1 1 1 0 0 1 2 2 2 2 2 3 3 3 6 12 12 9 9 12 14 13 17 22 23 24 24 23 23 22 20 18
4 3 2 2 4 7 9 10 10 9 9 8 8 7 7 6 3 2 3 4 4 6 6 7 6 4 6 6 6 6 7 9 9 8 8 8 9 9 8 7 6 5 7 7 7 7 8 8 6 3 3 4 2 2 1 2 2 0 1 0 0 1 2 3 1 2 3 3 5 5 8 15 17 16 18 19 20 22 26 29 28 27 24 23 23 23 22 21
5 4 2 1 4 8 9 10 10 10 9 9 8 8 7 5 4 2 3 2 4 4 3 5 5 3 5 8 8 7 6 6 6 6 6 6 7 6 6 7 5 3 2 2 6 9 8 6 4 2 2 3 3 3 2 3 1 0 0 0 1 1 2 2 1 2 3 4 6 7 9 14 16 16 18 18 18 21 24 25 26 25 21 20 21 20 20 22
5 4 3 1 5 9 9 9 10 11 10 9 9 7 6 5 3 1 4 8 11 9 6 9 12 10 10 10 9 7 6 6 5 4 4 4 4 3 6 6 5 7 5 1 4 7 6 4 3 2 2 2 2 2 2 2 1 1 1 1 1 2 2 0 1 1 1 4 4 4 8 15 17 17 20 19 16 18 20 22 26 26 22 20 20 19 19 20
6 5 3 2 6 10 9 9 10 11 10 10 10 7 6 5 2 2 8 14 15 14 11 12 13 12 11 9 7 6 6 6 5 3 2 2 1 1 5 5 4 6 7 2 1 4 4 3 3 2 2 3 2 1 1 0 0 1 1 2 1 1 2 1 1 2 1 3 2 1 8 17 17 17 19 17 13 16 17 18 22 24 22 21 20 19 18 19
7 6 3 3 8 10 8 8 10 12 10 10 10 7 7 6 2 4 8 11 12 12 12 12 13 12 10 8 7 6 5 5 4 3 2 2 3 2 4 6 5 2 3 2 0 1 3 3 2 2 2 2 1 1 3 2 0 1 1 2 1 1 3 1 1 1 1 3 4 5 10 17 17 15 14 11 10 13 14 15 19 20 20 20 18 18 17 18
8 7 4 4 9 10 7 7 10 11 11 10 9 7 8 6 3 5 8 9 9 9 9 9 10 11 9 7 6 5 4 4 4 5 4 2 4 6 6 6 4 2 3 5 1 1 2 3 2 2 1 1 1 2 4 3 1 1 1 1 1 3 3 1 2 1 1 2 6 8 9 12 12 8 6 4 6 9 12 16 20 20 20 19 17 17 17 19
8 8 5 5 10 10 7 7 9 10 10 10 8 8 8 6 5 7 8 8 5 5 6 7 7 8 7 6 5 5 6 6 5 7 7 4 4 6 6 5 3 3 4 5 4 5 3 2 2 1 1 2 3 1 2 2 1 1 1 2 1 2 1 3 4 5 3 2 3 9 8 5 4 4 3 1 4 7 9 11 16 19 20 19 18 18 18 19
9 9 7 6 10 11 7 6 8 9 10 10 8 8 8 7 7 6 5 5 2 2 3 4 5 6 6 5 4 5 7 7 6 6 7 7 4 4 5 5 3 2 1 2 4 6 4 1 0 0 1 2 3 1 2 3 1 1 0 2 1 1 2 5 7 7 3 1 2 6 6 1 1 4 5 3 5 7 6 7 12 16 17 19 19 19 18 20
10 10 8 7 10 10 8 6 7 8 9 10 9 8 9 8 6 4 3 3 0 2 2 3 4 3 3 3 3 5 3 3 6 6 5 7 6 4 5 4 4 3 2 2 3 3 3 1 1 1 2 2 2 0 2 3 2 1 1 1 1 1 3 4 5 4 3 3 2 3 4 4 3 4 4 4 7 9 6 6 11 16 17 19 21 20 18 19
11 11 10 9 10 10 9 8 7 8 9 10 10 9 10 9 5 4 2 2 1 3 3 3 2 1 1 1 3 4 1 2 4 6 5 5 5 4 3 1 3 4 3 3 2 2 2 2 1 1 2 2 1 0 2 3 3 1 1 1 1 1 3 2 2 2 2 3 2 2 2 4 5 4 1 3 8 8 5 4 8 14 19 21 21 20 19 20
12 12 11 11 11 11 10 9 8 9 9 10 11 10 11 9 5 3 2 1 1 3 3 2 3 3 4 3 3 3 2 3 3 2 5 7 4 3 3 1 3 5 2 1 1 1 1 0 1 0 1 1 1 2 2 4 3 2 2 1 0 2 2 1 1 1 1 2 2 2 3 4 5 4 0 2 4 5 6 6 4 8 15 21 23 20 19 20
14 13 12 12 12 12 12 10 9 10 9 10 11 11 10 8 5 3 2 1 2 3 2 3 5 3 3 4 4 4 4 3 2 1 3 5 4 3 5 8 11 10 6 4 2 2 1 2 1 0 1 1 1 2 2 4 2 2 3 2 1 2 1 1 2 0 1 2 1 3 4 4 4 4 1 1 2 4 6 6 5 7 9 14 21 22 19 19
15 15 13 13 13 12 13 11 10 10 10 11 12 12 10 7 4 3 1 2 1 2 1 3 3 1 1 2 3 5 3 3 4 3 3 4 5 7 11 12 10 7 5 7 6 3 2 2 2 2 2 2 1 1 0 2 1 3 2 1 2 3 2 1 0 1 2 2 1 3 3 3 4 4 2 1 1 3 6 8 8 10 12 12 14 19 20 20
16 16 15 14 14 14 13 12 11 11 11 12 13 14 11 5 2 2 2 1 2 2 1 1 1 1 2 2 2 4 3 4 5 4 3 4 4 7 9 6 4 2 1 4 4 2 2 2 2 2 2 1 1 1 1 1 1 1 1 2 3 2 2 2 1 1 2 1 2 2 3 2 4 4 3 3 3 2 4 8 10 12 15 16 14 13 18 20
16 16 16 14 15 15 13 13 11 11 12 14 16 15 9 3 0 2 3 1 1 1 1 1 1 1 2 2 2 3 1 3 6 5 2 1 1 2 1 1 1 1 1 1 2 1 2 2 1 1 2 1 2 2 2 3 2 1 2 3 3 1 1 1 1 1 2 1 2 1 2 3 6 8 10 12 10 6 5 8 13 15 19 22 18 12 13 19
17 17 16 15 16 16 15 13 11 12 14 17 17 11 5 1 3 3 2 1 1 1 1 2 1 2 0 1 2 1 1 1 4 3 1 1 1 1 0 1 1 1 0 1 0 0 1 1 1 1 1 2 2 2 1 1 0 1 1 2 2 2 2 2 2 2 2 1 2 1 2 3 5 6 8 10 11 12 14 16 19 21 24 25 21 14 12 16
17 17 17 16 16 17 16 14 12 14 17 18 14 6 4 3 3 1 2 2 1 1 2 2 2 2 2 1 1 1 1 1 2 1 1 0 1 1 2 2 2 1 3 2 0 1 2 2 1 0 0 2 2 1 2 1 1 1 1 3 1 0 2 3 2 2 3 3 0 1 1 3 3 3 4 8 14 20 20 16 15 17 18 19 17 14 12 14
18 18 17 16 17 18 18 15 14 16 19 17 8 3 3 5 2 1 3 3 1 1 1 1 1 3 2 1 1 1 1 1 1 1 1 0 2 1 1 3 3 2 2 2 2 2 2 2 2 1 2 2 0 0 1 1 1 1 1 2 1 0 1 1 1 1 2 3 2 2 3 4 4 7 11 14 15 14 11 8 12 15 15 12 10 10 11 12
18 18 18 17 17 18 19 18 16 18 19 13 5 2 4 3 1 2 4 4 4 5 5 2 1 2 1 1 0 1 1 0 1 1 1 0 2 2 1 1 3 4 2 1 2 2 1 0 1 1 0 2 1 1 1 2 0 1 1 1 0 2 1 1 1 1 1 3 2 1 4 5 3 6 7 7 6 4 3 8 15 16 15 13 10 9 11 12
19 19 19 18 18 18 20 19 18 20 18 9 4 4 2 1 2 3 3 4 5 6 5 3 1 2 3 3 2 2 1 1 0 1 2 1 2 4 3 1 4 4 1 1 2 1 1 1 1 1 1 2 2 1 0 2 1 1 1 1 2 1 1 0 1 1 1 3 2 0 5 5 3 2 2 2 4 6 6 9 14 16 17 16 14 12 11 11
20 20 19 19 18 18 19 19 19 21 16 5 2 3 1 1 3 5 5 5 5 5 3 2 1 1 2 4 3 2 2 3 2 2 2 1 2 4 4 2 3 3 2 1 1 0 1 2 1 1 0 1 1 2 1 1 2 2 1 1 0 2 1 1 1 2 2 4 3 2 5 5 3 3 3 3 4 7 8 8 9 13 16 17 16 17 17 18
20 18 17 19 20 18 18 18 19 20 12 3 3 3 1 2 3 6 9 6 3 3 2 2 1 1 1 3 2 3 3 3 4 2 2 2 2 3 3 1 2 3 3 3 1 0 0 2 1 1 1 1 1 3 3 3 2 1 1 0 1 2 1 0 0 1 2 3 3 3 4 4 5 4 4 6 6 5 7 6 6 10 14 13 14 18 24 26
20 14 12 19 21 18 18 19 19 16 8 2 3 2 0 2 3 8 10 7 3 2 2 2 2 2 2 1 1 2 2 2 3 3 1 1 1 1 1 1 3 4 3 2 0 0 2 1 1 1 1 2 2 2 2 1 3 2 3 2 2 1 1 1 1 0 1 2 2 1 3 6 4 3 4 8 6 4 4 5 8 11 13 14 19 25 31 33
21 10 9 20 22 19 21 18 12 8 3 0 1 1 1 3 5 8 10 7 3 2 2 2 3 3 3 2 1 2 3 2 3 2 1 3 2 1 0 2 4 6 4 2 1 2 1 1 1 2 2 3 1 1 2 2 1 1 2 2 3 3 2 2 2 0 0 2 2 1 3 8 4 2 4 6 4 3 4 5 9 14 18 24 31 33 34 36
21 7 8 21 23 23 24 13 3 3 2 2 3 2 3 4 5 7 9 6 3 2 3 2 2 2 3 2 1 3 4 2 2 2 2 3 1 1 1 4 6 7 4 1 0 1 2 1 1 1 2 1 1 2 1 2 2 2 2 1 0 2 2 3 3 1 2 1 0 2 3 7 2 2 2 4 3 5 7 7 11 18 26 32 35 36 36 36
20 11 12 22 26 28 23 5 1 2 0 2 4 4 5 5 4 6 7 5 2 2 2 1 1 2 2 1 2 4 4 3 4 3 2 2 0 2 2 5 6 6 3 0 1 3 2 1 1 2 1 1 1 1 1 1 1 2 3 2 1 1 1 0 0 0 1 3 3 2 4 6 2 1 2 4 4 7 9 10 14 23 31 34 34 36 36 35
20 13 13 21 27 30 19 4 3 4 1 2 4 3 4 4 4 5 5 6 5 3 2 2 1 2 2 2 3 3 3 2 3 2 0 1 1 2 2 5 6 4 1 1 2 4 3 1 1 1 1 1 2 2 2 1 2 4 2 2 2 2 4 2 1 1 2 4 6 4 7 7 2 1 2 3 2 7 12 15 17 22 28 32 34 36 35 34
16 9 9 18 27 28 16 6 7 5 2 3 3 3 4 2 4 5 3 5 6 4 3 2 3 4 3 3 3 2 0 1 0 1 1 1 1 2 2 4 5 3 1 1 3 4 2 1 2 3 3 4 2 1 1 1 2 3 2 3 4 4 5 2 1 2 4 3 5 6 8 8 4 3 6 6 4 8 13 17 19 22 26 31 33 35 33 30
15 7 5 10 18 21 15 10 11 8 4 4 2 2 4 2 3 5 3 4 6 4 4 3 5 5 3 2 3 2 1 1 2 1 1 2 1 1 1 3 4 3 0 2 5 4 1 1 2 4 5 4 1 0 1 1 2 3 3 5 6 5 5 3 1 4 4 3 4 10 9 10 14 13 12 12 10 10 11 14 18 24 31 34 32 31 28 26
13 6 7 9 7 11 10 8 11 10 8 10 6 4 6 3 2 3 2 3 5 6 4 2 3 4 3 5 4 2 3 2 1 1 2 2 1 1 1 2 3 4 1 3 6 4 1 2 2 3 5 3 0 1 1 1 3 4 3 5 8 8 7 7 7 6 4 3 8 10 6 8 16 15 13 15 14 11 13 16 19 25 32 33 30 27 25 24
11 6 16 18 8 6 8 11 15 13 10 13 8 4 8 6 3 5 4 2 4 6 4 1 3 5 5 7 5 3 5 2 1 3 2 2 2 1 1 1 2 4 3 3 5 3 0 2 1 1 4 2 0 1 1 2 4 5 5 5 8 10 12 12 13 8 7 7 14 11 4 8 14 14 15 17 15 14 19 25 28 28 29 28 26 24 23 24
15 6 14 20 11 9 15 18 20 16 10 11 6 3 8 10 8 5 3 3 3 5 6 4 5 6 6 5 4 4 6 4 2 5 4 3 4 2 1 1 2 4 4 3 3 2 2 2 2 1 4 3 0 1 1 3 4 6 9 8 9 12 14 14 13 10 9 12 17 15 12 13 16 16 18 23 24 23 26 28 29 28 26 24 23 22 23 25
22 12 13 17 9 8 15 18 19 13 7 8 7 3 5 10 10 5 4 7 5 3 6 5 4 6 6 5 5 4 7 8 3 4 8 6 2 4 3 2 3 3 2 2 2 1 2 1 3 2 3 4 1 2 1 2 3 7 10 7 10 11 12 12 11 8 8 12 14 11 11 15 18 16 16 22 24 21 21 23 25 25 23 22 22 21 22 25
30 21 17 16 8 7 12 14 14 10 5 7 8 5 4 8 11 9 6 10 8 6 11 12 6 6 3 3 6 7 10 10 1 2 12 10 4 7 6 4 8 8 3 2 2 2 2 1 2 2 2 3 2 3 3 2 3 9 13 9 12 12 8 9 9 7 10 11 8 5 7 12 12 8 9 16 18 14 16 20 22 24 23 20 20 19 21 24
33 23 20 17 8 7 10 8 9 10 7 9 11 8 7 10 16 16 8 8 12 9 12 18 15 8 2 4 11 14 13 9 2 3 13 10 4 7 7 7 12 11 6 5 2 1 3 3 2 2 3 2 2 3 3 5 5 7 9 7 11 12 9 7 7 9 12 10 5 5 9 9 7 8 8 14 15 12 14 18 21 24 21 18 17 18 21 23
Wind_Direction
45 63 71 89 113 118 117 116 117 116 110 104 99 94 89 88 87 86 87 89 94 99 103 102 97 94 91 92 94 90 82 68 80 102 81 53 46 55 59 71 82 88 94 95 98 99 104 118 124 125 128 122 109 102 94 72 58 76 28 84 108 136 135 160 170 151 119 139 161 171 183 191 182 199 214 237 244 243 251 249 244 240 235 229 226 230 235 239
44 64 75 96 119 124 122 122 122 117 111 104 96 90 86 86 87 89 89 88 93 100 107 108 106 101 102 101 97 94 89 88 101 82 56 43 57 63 66 79 78 77 79 80 89 96 116 133 130 133 134 115 95 93 85 51 50 59 34 96 107 117 93 120 141 137 135 147 158 169 181 194 192 188 204 231 233 229 249 253 245 244 235 228 230 229 235 245
41 64 76 99 123 129 125 127 126 120 112 103 96 91 87 85 86 88 88 88 89 96 105 105 112 116 113 105 93 86 83 95 89 53 38 48 66 66 73 79 72 70 73 79 90 105 128 135 132 137 127 103 81 89 74 43 49 39 32 97 97 105 95 111 142 141 148 147 152 166 183 201 208 192 200 227 239 227 238 241 232 239 234 226 229 228 235 245
33 64 78 100 125 132 129 131 131 125 115 107 103 98 90 86 86 86 85 83 81 90 101 101 116 124 118 100 65 65 92 98 56 25 33 57 65 70 68 69 69 67 73 87 93 109 144 142 136 131 110 90 62 76 51 24 50 37 22 71 104 130 106 130 158 156 151 151 155 166 178 204 214 206 205 214 245 232 236 238 228 232 230 223 227 230 235 242
22 59 84 102 127 136 133 135 137 130 122 115 112 104 94 86 82 81 78 78 82 92 97 97 106 110 136 257 30 40 122 104 25 12 40 58 64 67 56 60 64 60 69 92 89 94 156 158 153 122 81 69 33 61 36 23 70 65 30 55 85 117 85 131 161 164 159 155 156 164 176 207 205 212 217 212 229 233 235 238 228 230 228 223 230 235 239 242
11 47 85 105 127 142 139 138 144 140 131 123 117 109 97 89 82 78 73 75 82 88 90 91 97 91 32 1 347 300 132 88 6 14 44 52 57 57 58 57 49 56 62 83 81 173 184 204 217 317 67 66 33 52 40 22 74 88 65 56 67 67 88 139 160 161 163 159 160 175 202 217 205 228 232 223 234 241 237 234 227 228 226 226 232 238 241 242
6 34 76 107 126 146 148 145 150 149 141 129 121 112 102 96 87 77 68 70 73 80 89 95 101 84 50 47 54 97 92 67 21 26 43 45 50 51 60 58 52 70 63 52 18 228 220 233 199 107 87 80 58 68 60 53 72 91 99 71 78 89 107 139 151 154 161 172 188 210 236 228 222 245 248 237 242 246 243 245 243 239 233 230 232 234 239 242
342 23 70 105 125 145 156 155 155 158 154 142 131 119 106 98 90 74 62 59 59 81 94 102 105 69 67 88 90 84 69 41 27 38 43 43 46 49 64 76 83 72 48 44 56 97 159 174 144 103 75 81 88 90 77 74 65 66 105 120 104 103 119 135 140 153 164 202 214 228 246 244 240 253 265 254 255 254 244 241 241 241 237 235 235 236 239 242
298 324 84 108 128 142 159 166 164 168 170 164 149 129 110 97 87 66 52 42 43 79 98 97 85 60 103 117 93 75 44 25 34 40 49 58 56 66 76 78 71 46 22 101 110 102 120 153 149 130 113 104 99 93 65 66 59 71 117 126 119 116 128 137 145 163 175 212 217 237 255 256 253 264 270 263 260 253 241 234 234 236 237 240 242 242 243 245
275 247 185 135 135 142 157 171 177 176 177 179 168 144 119 98 83 60 45 34 37 65 84 80 52 86 127 130 81 75 40 38 42 38 57 69 61 68 69 66 69 61 73 114 132 117 135 139 132 127 116 102 87 68 41 56 111 119 117 110 111 117 128 140 154 170 198 228 222 246 267 264 258 265 266 258 238 226 224 226 232 236 240 245 248 249 248 247
265 245 211 177 154 147 157 171 183 183 179 180 174 155 129 103 81 58 41 36 43 59 67 69 67 84 138 133 90 88 54 55 52 46 58 63 69 76 71 69 77 71 54 126 152 129 121 120 120 116 99 99 91 70 73 101 117 121 116 100 92 103 121 130 154 184 236 236 232 259 274 262 227 232 249 244 221 214 219 228 236 241 244 248 250 251 250 250
257 243 223 203 172 158 162 170 183 187 180 172 168 156 135 115 85 58 42 41 45 64 70 71 79 80 109 99 90 90 70 68 62 54 59 72 82 76 65 62 72 73 59 103 128 128 124 116 117 114 113 121 109 79 98 112 117 119 115 101 96 127 140 131 176 219 246 239 259 285 276 240 192 226 248 243 233 234 240 244 245 247 248 250 251 251 251 251
244 239 225 211 187 174 170 169 180 186 181 168 162 153 139 125 92 60 46 41 43 64 64 68 86 86 95 86 82 87 80 72 67 60 60 69 69 58 54 55 75 87 79 106 118 117 104 87 118 120 119 118 111 118 120 116 117 116 83 75 137 175 165 150 191 239 251 243 271 309 290 245 195 226 241 236 236 243 250 249 247 250 252 251 252 253 253 251
220 233 227 214 196 183 175 169 175 181 178 165 157 153 145 135 100 67 48 42 47 57 50 71 86 99 106 91 82 87 77 72 77 74 69 67 67 66 69 73 83 91 91 93 94 87 85 104 126 112 106 106 114 121 118 107 105 109 132 152 128 246 142 122 143 252 244 225 259 274 271 282 231 226 228 233 246 251 252 252 251 253 254 255 254 254 254 253
189 215 220 211 193 183 176 167 168 176 173 162 159 155 149 138 102 70 45 35 45 56 62 78 84 115 107 92 86 88 79 82 96 97 86 81 82 83 81 84 87 85 84 82 83 86 91 114 113 97 94 109 119 124 115 107 79 78 250 139 96 291 130 121 92 325 278 280 260 238 266 285 293 261 233 240 252 248 247 251 253 253 252 255 255 256 257 254
162 170 203 207 186 178 172 162 161 169 167 158 160 157 152 139 104 68 36 25 37 60 82 92 113 128 106 88 91 95 97 102 104 100 96 97 95 90 85 83 83 81 78 75 79 88 101 111 100 93 98 111 119 129 117 123 110 87 308 37 124 286 322 143 113 42 319 302 258 234 269 289 285 283 239 233 235 234 247 252 253 259 259 259 259 259 259 256
158 151 175 204 185 174 168 160 155 162 163 157 159 160 154 138 110 65 34 29 45 75 100 109 126 121 91 91 102 97 106 103 98 100 101 105 101 91 82 73 73 79 80 79 84 92 99 100 94 91 88 85 4 257 136 101 90 106 352 53 205 261 299 306 128 62 313 250 239 212 245 268 266 269 260 245 243 252 269 270 270 272 269 265 262 259 258 256
165 149 155 207 193 173 165 158 152 157 160 157 159 160 155 142 126 94 37 32 66 95 109 104 123 119 75 92 101 92 102 97 96 104 107 111 104 92 76 49 46 78 89 76 68 73 77 84 99 109 64 52 22 322 114 78 74 61 331 19 334 220 241 286 263 26 343 238 240 233 247 266 269 268 262 257 258 261 269 273 274 274 269 263 260 256 254 252
177 154 146 212 196 174 164 158 153 156 160 159 160 158 155 148 135 88 15 36 92 109 113 65 69 116 106 104 100 92 92 92 99 106 113 117 110 96 52 22 30 66 111 65 35 42 57 81 99 98 51 32 7 3 39 54 32 2 56 266 320 286 249 273 322 20 348 269 254 248 259 276 279 278 271 265 263 262 265 268 269 269 265 260 259 257 251 247
189 166 151 207 195 174 164 161 155 156 159 159 161 160 158 149 128 36 39 74 88 97 105 80 82 102 112 110 103 94 84 77 82 96 119 124 121 89 15 12 52 60 56 14 3 32 54 84 70 52 52 18 335 355 25 35 21 100 132 206 209 285 297 92 25 36 334 285 265 246 275 281 279 278 275 271 265 260 257 257 263 266 264 260 259 258 250 246
196 184 163 174 189 175 166 167 160 159 161 159 165 166 163 158 122 104 88 78 83 94 101 97 97 104 107 108 101 94 85 68 61 66 96 98 106 329 360 20 76 52 28 332 300 34 52 81 66 45 21 348 330 320 283 152 348 207 231 288 208 273 315 51 17 10 23 304 271 334 302 284 277 277 278 273 258 251 246 245 257 262 261 260 258 257 251 245
201 197 179 164 182 179 170 170 164 163 164 162 169 171 163 159 116 131 113 86 84 90 95 100 104 108 109 107 98 94 94 73 55 49 74 73 25 4 38 57 75 60 357 341 160 40 43 84 78 35 17 343 341 242 247 228 262 232 226 296 331 352 307 307 72 35 12 306 301 349 318 289 283 284 285 281 258 254 250 243 251 257 257 256 254 253 248 242
206 202 197 171 177 181 173 170 168 168 168 166 170 166 158 147 108 134 125 102 88 77 90 103 105 110 109 102 94 97 104 79 47 33 35 59 53 60 80 71 71 95 2 359 27 114 66 86 80 43 41 269 257 229 237 223 148 10 6 323 344 12 324 292 68 346 273 277 296 309 295 280 291 292 273 289 284 275 268 255 251 249 249 249 248 248 245 239
211 203 207 180 176 183 175 167 169 169 172 171 167 159 155 136 119 132 113 98 90 76 95 102 101 105 104 100 93 97 103 85 53 32 34 65 84 67 73 74 79 84 23 1 50 87 78 49 61 87 155 258 265 229 236 243 131 48 22 32 353 356 323 283 313 309 267 169 293 304 286 254 308 306 250 319 330 298 289 276 258 247 246 245 243 245 244 238
215 206 209 187 179 183 176 170 171 172 175 173 166 159 153 135 123 136 111 86 92 100 103 106 100 100 104 104 96 100 97 77 57 43 47 57 69 89 85 68 55 77 322 334 63 81 75 61 164 191 190 232 255 290 336 291 309 84 75 39 358 322 291 281 301 309 286 151 29 332 315 267 57 293 277 326 338 307 294 282 266 252 245 242 242 245 244 237
219 209 207 194 184 184 184 183 176 175 177 176 170 155 153 146 129 141 122 68 110 160 146 142 118 107 102 84 108 118 99 64 60 53 59 53 54 100 104 58 51 89 151 120 87 85 76 118 211 262 243 218 226 246 349 303 301 44 63 61 82 252 271 288 315 323 313 330 5 359 318 297 310 298 297 338 320 304 292 264 260 256 247 241 242 244 241 234
219 213 208 197 186 186 192 193 184 179 176 177 172 154 157 155 134 146 133 28 267 166 144 160 163 158 114 62 140 139 153 146 93 56 61 59 57 98 109 73 71 89 138 141 97 70 88 153 164 175 240 253 255 5 5 310 304 22 85 114 116 249 264 290 327 322 337 312 293 34 341 285 291 292 312 338 308 303 308 278 256 254 249 242 241 243 239 230
218 217 210 200 191 190 197 198 186 181 180 178 171 159 161 156 136 148 136 63 198 132 119 150 148 131 113 111 130 117 103 138 130 60 68 68 73 100 83 104 114 94 107 220 292 20 36 146 117 101 242 280 315 13 350 299 308 53 114 142 92 279 268 261 282 273 3 293 239 65 6 281 270 274 278 353 303 307 327 326 300 272 259 248 242 242 238 229
214 218 213 204 196 192 200 202 187 180 180 176 170 164 158 149 135 104 90 198 167 111 112 146 143 123 97 101 80 71 90 89 42 38 72 62 63 95 100 112 118 105 70 28 68 103 46 37 66 325 314 35 48 35 330 298 332 90 121 122 160 248 245 247 288 262 205 268 269 39 356 310 289 289 302 1 310 317 328 327 312 310 301 267 247 242 240 231
212 218 215 207 200 194 200 202 191 180 173 171 172 164 149 139 123 91 100 233 153 110 132 154 166 217 56 110 56 42 63 47 32 47 76 68 72 104 113 112 112 106 68 51 67 92 90 75 76 41 16 46 60 96 261 330 24 114 135 175 202 208 203 200 278 280 242 232 71 26 345 321 310 300 273 279 340 336 322 315 305 307 318 308 269 248 243 236
211 216 215 211 204 197 197 199 195 180 173 173 169 160 147 124 74 126 190 219 98 127 139 100 269 344 66 130 61 29 37 31 21 30 71 68 69 105 114 112 110 114 109 74 72 109 143 114 73 41 35 30 244 214 168 143 159 160 246 270 253 216 195 198 174 202 268 304 84 36 322 283 270 272 275 285 280 262 278 291 299 303 305 310 306 272 248 241
211 215 217 214 207 200 195 196 194 182 177 172 165 162 151 117 261 192 226 296 82 172 159 83 342 33 82 114 58 12 358 20 16 26 64 29 40 98 103 251 163 166 260 97 97 153 138 90 25 19 43 7 274 238 173 163 178 244 272 275 284 315 328 273 269 224 275 340 93 82 321 264 244 258 275 283 285 281 262 269 282 292 295 298 303 294 258 243
211 214 216 214 208 201 194 193 193 185 177 169 166 161 126 121 220 189 194 255 23 7 72 82 64 55 91 147 84 4 275 352 0 26 70 311 27 77 303 281 255 275 231 124 115 157 151 109 110 195 100 19 309 285 200 166 132 312 296 307 310 3 356 301 295 289 279 331 98 101 313 273 264 268 256 261 283 295 290 286 286 286 287 288 290 290 269 246
209 212 215 214 208 201 194 192 191 183 175 171 166 138 103 179 221 176 188 224 327 359 59 78 111 88 49 84 107 275 210 81 344 3 48 357 175 183 203 198 254 318 94 130 223 62 250 240 84 178 315 4 323 336 351 349 32 10 323 319 293 124 321 289 285 288 296 319 55 161 270 251 289 324 267 272 293 298 296 297 301 304 301 293 283 279 273 255
206 211 212 210 207 201 194 192 188 182 178 173 158 111 164 193 203 196 195 180 170 155 93 42 125 105 53 26 31 295 223 103 18 348 46 93 201 200 187 183 211 205 132 178 172 93 271 267 63 6 334 5 14 47 322 272 133 109 280 285 270 81 323 302 354 323 316 310 262 211 250 247 275 293 293 298 298 296 303 324 337 343 342 323 296 285 286 277
203 209 209 207 206 200 196 193 186 182 181 172 154 187 211 212 191 181 158 138 149 152 140 139 146 123 142 223 65 48 228 13 25 227 193 279 233 213 216 193 193 198 176 171 170 151 261 288 78 320 25 48 15 56 299 296 348 133 217 226 59 357 330 138 91 95 146 276 264 204 269 280 296 282 288 313 310 298 331 349 353 2 5 356 343 326 309 298
201 205 206 205 203 200 200 195 187 186 184 170 177 210 210 223 190 175 142 123 136 144 146 156 177 191 178 183 198 166 170 208 205 208 188 202 227 190 191 223 189 198 241 275 207 195 226 155 108 328 125 88 6 5 91 0 5 232 234 102 112 297 320 99 284 273 209 264 274 315 285 299 337 308 311 1 335 339 349 349 356 8 10 9 16 18 1 337
199 203 205 205 203 201 200 196 192 192 185 168 223 230 197 182 174 165 158 140 132 138 158 169 128 299 194 177 184 159 164 187 164 162 179 198 238 175 162 180 180 196 224 182 196 284 259 219 145 12 329 59 349 268 202 95 45 334 327 77 140 249 182 133 262 284 294 282 284 305 295 280 225 246 299 319 324 335 335 337 353 3 2 9 28 31 12 354
194 201 206 205 201 198 198 198 194 189 180 174 226 223 193 193 182 171 165 153 145 149 163 173 94 6 198 167 145 151 183 187 153 164 198 186 204 175 161 171 162 179 179 150 163 37 120 247 212 150 284 346 276 229 215 156 127 12 302 198 290 297 302 238 283 311 283 285 297 326 323 273 212 201 261 286 301 318 324 328 334 343 350 1 11 1 347 341
187 196 211 203 197 197 195 190 186 181 174 186 201 180 186 193 179 178 169 155 149 161 168 162 136 153 180 148 7 167 177 183 162 179 218 186 202 188 155 159 139 149 157 127 217 146 88 258 237 132 237 262 208 203 238 158 143 175 204 191 179 178 326 273 215 95 266 276 273 275 299 273 236 159 221 267 298 319 321 316 309 322 335 338 337 337 337 334
183 196 219 195 190 191 184 176 174 175 168 161 165 112 220 179 161 171 173 159 130 127 143 130 128 147 153 146 238 178 150 162 183 198 229 203 215 298 124 162 142 142 146 134 206 209 132 186 197 133 197 226 187 57 356 356 5 252 219 208 194 163 145 223 226 135 341 275 247 185 286 278 261 143 219 258 301 321 314 308 305 316 325 328 330 332 330 327
183 200 209 188 186 183 175 165 150 165 165 181 170 148 159 159 151 165 173 164 123 96 115 108 96 130 154 157 156 158 153 158 177 205 231 210 232 4 152 162 152 152 154 124 153 167 120 120 178 191 204 232 13 42 5 330 334 313 289 288 240 168 180 224 234 184 159 198 76 72 274 269 261 122 215 249 275 292 305 307 308 317 323 325 326 325 325 327
190 203 195 185 183 179 173 161 5 177 167 141 142 133 144 146 142 158 176 182 164 124 123 123 134 145 174 170 129 169 191 187 177 186 223 214 339 22 152 166 163 162 161 82 110 143 145 133 204 258 300 110 134 133 130 355 322 273 257 212 212 222 182 348 30 161 203 185 161 150 249 262 307 62 246 262 284 298 311 314 312 316 318 319 320 323 328 331
192 199 191 185 182 180 180 185 181 186 213 124 115 112 140 153 163 161 180 197 184 158 143 153 164 138 133 125 121 165 201 201 197 204 246 195 160 60 120 166 169 163 172 282 157 170 191 187 177 245 300 206 185 167 169 157 209 245 233 170 195 114 90 87 121 147 258 211 176 202 253 258 258 107 219 239 294 306 307 309 310 310 312 316 321 326 332 335
183 183 184 185 182 183 192 205 177 164 145 135 115 142 151 146 188 185 183 185 177 166 153 146 145 128 112 117 101 97 135 3 214 174 82 172 175 65 109 170 179 180 327 337 159 170 193 202 179 199 232 228 226 275 245 134 158 219 201 165 191 157 140 173 153 182 239 205 163 210 249 265 278 283 277 276 288 297 299 305 309 309 312 316 321 326 333 339
180 176 170 177 183 191 206 214 186 164 156 161 132 169 176 131 172 182 165 172 180 162 129 113 135 127 102 146 133 107 129 38 45 137 176 190 182 68 129 165 180 194 32 113 154 148 108 276 232 232 247 254 274 8 265 77 134 194 191 167 178 187 187 179 154 209 208 142 202 230 245 283 289 284 289 297 298 296 301 309 313 314 315 319 323 328 336 344
183 193 172 158 176 204 217 222 195 174 169 180 175 167 173 147 115 156 159 191 196 171 132 96 158 163 160 165 153 142 156 110 82 172 176 175 144 36 182 173 177 193 166 134 159 140 102 230 222 234 253 274 337 184 224 252 234 230 212 167 165 182 191 190 208 210 139 131 256 249 210 252 274 280 290 295 297 306 314 314 312 312 313 318 326 333 340 348
188 197 183 176 175 187 201 211 197 181 171 179 179 154 165 166 159 174 178 180 191 188 178 194 222 209 186 169 157 149 152 124 200 195 153 149 164 98 128 202 211 200 177 152 171 156 198 237 163 193 262 278 122 275 320 247 247 254 242 197 167 178 191 203 218 209 160 208 255 267 238 242 270 287 289 287 295 310 310 306 305 307 311 318 327 335 341 348
185 175 180 187 193 186 191 196 185 176 174 177 178 163 173 183 184 174 149 127 175 219 209 214 225 202 185 181 162 148 163 168 202 203 175 151 175 161 126 194 211 199 174 150 166 182 206 211 130 139 283 288 255 338 295 240 265 274 252 217 181 190 199 209 225 216 201 236 258 271 284 283 278 277 279 285 294 300 298 298 302 307 315 323 329 333 339 344
188 181 171 179 191 185 185 182 170 169 184 185 191 195 175 187 190 173 155 166 164 187 198 219 227 178 177 194 183 186 197 183 167 199 178 151 165 203 199 181 158 157 169 153 138 177 213 201 104 114 286 290 335 10 302 228 258 269 263 224 183 199 212 222 240 229 217 247 261 272 292 286 274 272 279 284 290 295 294 297 304 310 319 325 326 331 337 339
193 191 181 175 176 169 173 171 166 173 195 192 191 181 169 199 194 169 176 201 192 170 188 196 171 142 160 207 207 225 206 183 140 213 180 170 170 192 197 175 153 148 155 171 147 146 187 168 87 107 261 274 1 352 313 300 260 258 269 245 193 194 207 216 227 210 202 226 248 279 276 261 266 297 308 292 290 291 292 298 305 312 320 323 321 326 333 336
192 192 190 183 176 170 171 164 168 185 197 190 187 181 184 197 183 168 177 224 212 205 206 193 169 139 129 202 219 227 204 177 92 123 166 170 151 157 162 157 157 155 153 159 150 120 174 168 134 160 237 264 335 329 312 317 292 261 270 245 188 187 206 227 240 221 208 212 219 231 238 249 293 327 313 298 297 295 294 300 305 308 315 320 320 325 330 333